Regional Weather Roundup
Issued by NWS

Home | Current Version | Previous Version | Text Only | Print | Product List | Glossary On
Versions: 1 2 3 4 5 6 7 8 9 10 11 12 13 14 15 16 17 18 19 20 21 22 23 24 25 26 27 28 29 30 31 32 33 34 35 36 37 38 39 40 41 42 43 44 45 46 47 48 49 50
000
ASUS43 KMKX 310821
RWRWI

WISCONSIN REGIONAL WEATHER ROUNDUP
NATIONAL WEATHER SERVICE MILWAUKEE/SULLIVAN WI
300 AM CDT FRI JUL 31 2015

NOTE: "FAIR" INDICATES FEW OR NO CLOUDS BELOW 12,000 FEET WITH NO
SIGNIFICANT WEATHER AND/OR OBSTRUCTIONS TO VISIBILITY.

WIZ001-002-006>008-014>016-023>028-310900-
NORTHWEST WISCONSIN

CITY           SKY/WX    TMP DP  RH WIND       PRES   REMARKS
SUPERIOR ARPT  PTCLDY    63  56  79 W7        29.92S
ASHLAND        PTCLDY    60  56  86 SW5       29.91R
HAYWARD        CLOUDY    61  56  83 S3        29.95F
SIREN          PTCLDY    64  56  73 W9        29.98S
CUMBERLAND     CLEAR     61  55  82 W6        29.98S
RICE LAKE      PTCLDY    62  56  82 W3        29.99S
CHETEK         CLEAR     68  57  67 W3        29.97S
LADYSMITH      CLEAR     64  57  78 W6        29.98S
EAU CLAIRE     CLEAR     62  57  83 W8        29.98S
MENOMONIE      CLEAR     66  58  76 W6        30.00S
NEW RICHMOND   CLEAR     63  56  79 W5        30.01S
OSCEOLA        CLEAR     66  58  75 W9        30.03R
$$

WIZ003>005-009-010-017-018-310900-
NORTH CENTRAL WISCONSIN

CITY           SKY/WX    TMP DP  RH WIND       PRES   REMARKS
MANITOWISH WTR CLEAR     58  56  90 W3        29.92S
ARBOR VITAE    CLEAR     62  55  79 W5        29.93S
WOODRUFF       CLEAR     62  55  79 W5        29.93S
RHINELANDER    CLEAR     59  55  87 W8        29.95S
EAGLE RIVER    PTCLDY    56  55  98 W6        29.92S
LAND O LAKES   CLEAR     59  55  85 W5        29.92S
PHILLIPS       CLEAR     61  56  85 W3        29.94F
TOMAHAWK       CLEAR     61  56  83 CALM      29.95F
MEDFORD        CLEAR     61  56  85 W3        29.97F
MERRILL        NOT AVBL
$$

WIZ029-030-035-036-043>047-310900-
CENTRAL WISCONSIN

CITY           SKY/WX    TMP DP  RH WIND       PRES   REMARKS
WAUSAU         CLEAR     66  57  72 NW9       29.94F
MOSINEE        CLEAR     63  57  82 W8        29.97F
MARSHFIELD     CLEAR     64  56  75 W7        29.98F
STEVENS POINT  CLEAR     65  57  73 W9        29.97S
WAUPACA        CLEAR     68  58  72 W7        29.96S
WAUTOMA        CLEAR     64  58  81 CALM      29.99S
WISC RAPIDS    CLEAR     66  57  72 W7        29.99S
CAMP DOUGLAS   CLEAR     64  62  94 W5        29.99S
$$

WIZ011>013-019>022-031-037>040-048>050-310900-
NORTHEAST WISCONSIN

CITY           SKY/WX    TMP DP  RH WIND       PRES   REMARKS
ANTIGO         CLEAR     60  56  89 W6        29.95F
SHAWANO        NOT AVBL
OCONTO         CLEAR     64  59  85 W7        29.90S
STURGEON BAY   CLEAR     68  57  68 W10       29.92S
GREEN BAY      CLEAR     67  58  72 W9        29.93S
MANITOWOC      CLEAR     68  59  73 MISG      29.94S
APPLETON       CLEAR     64  54  68 SW7       29.96S
CLINTONVILLE   CLEAR     64  55  72 W6        29.94S
OSHKOSH        CLEAR     67  57  70 SW5       29.96S
$$

WIZ032>034-041-042-053>061-310900-
SOUTHWEST WISCONSIN

CITY           SKY/WX    TMP DP  RH WIND       PRES   REMARKS
LA CROSSE      CLEAR     67  61  81 CALM      30.01S
SPARTA         CLEAR     56  55  93 CALM      30.02S
VIROQUA        PTCLDY    62  60  91 W6        30.04S
BOSCOBEL       MOCLDY    60  59  96 CALM      30.03S
PRAIRIE DU CHI MOCLDY    64  60  87 E3        30.02F
PLATTEVILLE    CLEAR     63  60  89 SW6       30.05S
$$

WIZ056-057-062-063-064-067-068-310900-
SOUTH CENTRAL WISCONSIN

CITY           SKY/WX    TMP DP  RH WIND       PRES   REMARKS
REEDSBURG      CLEAR     67  58  74 W5        30.01S
BARABOO/DELLS  CLEAR     65  55  70 SW5       30.01S
LONE ROCK      CLEAR     58  55  90 CALM      30.03S
MINERAL POINT  CLEAR     66  61  82 SW6       30.04F
MADISON        PTCLDY    70  57  63 CALM      30.01F
MIDDLETON      CLEAR     61  56  84 CALM      30.02F
WATERTOWN      CLEAR     64  59  85 CALM      30.01S
MONROE         PTCLDY    68  59  73 W13       30.05S
JANESVILLE     CLEAR     64  55  72 CALM      30.03S
$$

WIZ051-052-058>065-066-070>072-310900-
SOUTHEAST WISCONSIN

CITY           SKY/WX    TMP DP  RH WIND       PRES   REMARKS
MILWAUKEE      CLEAR     71  55  56 W7        29.99S
WAUKESHA       CLEAR     66  54  63 W7        30.02S
MILWAUKEE/TIMM CLEAR     68  54  60 W8        30.01R
RACINE         CLEAR     68  56  65 W7        30.02S
BURLINGTON     CLEAR     64  55  74 CALM      30.02S
KENOSHA        CLEAR     65  57  75 W8        30.02S
FOND DU LAC    CLEAR     67  57  70 SW6       29.98S
SHEBOYGAN      CLEAR     66  58  75 W7        29.96S
WEST BEND      CLEAR     66  54  63 CALM      29.99S
JUNEAU         CLEAR     60  56  87 SW5       30.01S
$$

LSZ147-162-310900-
LAKE SUPERIOR

STATION/POSITION TIME  TEMP    WIND        PRES    WAVE
                       AIR SEA DIR/SP/G            HT/PER
                 (UTC) (F)     (DEG/KT/KT) (MB)    (FT/S)
W MID LAKE BUOY  0750   56 53  260/ 10/ 10 1010.1F   1
DEVILS ISLAND    0800   61     240/ 14/ 15 1011.8S
PORT WING        0700   68     260/  9/ 14 1012.9R
SAXON HARBOR     0700   68                 1011.5F
$$

LMZ867-665-643>646-310900-
LAKE MICHIGAN

STATION/POSITION TIME  TEMP    WIND        PRES    WAVE
                       AIR SEA DIR/SP/G            HT/PER
                 (UTC) (F)     (DEG/KT/KT) (MB)    (FT/S)
CHAMBERS ISLAND  0700   67     220/  8/ 12 1011.9F
S GREEN BAY BUOY 0800   67 69  260/ 10/ 12 1013.9F
N MID LAKE BUOY  0750   70 69  260/ 16/ 17 1010.5R   2/ 3
NORTHPORT PIER   0700   70     250/  4/ 10 1011.5F
SISTER BAY       0714   71     290/ 18/ 21   N/A
ALGOMA LAKESHORE 0712          250/  3/  6   N/A
KEWAUNEE LAKESHO 0700   68     280/  4/  6 1012.6F
SHEBOYGAN LAKESH 0800   71     250/ 10/ 12 1014.2F
PORT WASHINGTON  0700   73     270/  5/  7 1015.6S
ATWATER BUOY     0800   71 63  250/ 10/ 12 1016.7R
MILWAUKEE LAKESH 0800   73     270/  7/  9   N/A
KENOSHA   LAKESH 0800   72     270/  9/ 12 1015.9S
$$

TC  - TEMPERATURE IN CELSIUS
VSB - VISIBILITY IN STATUTE MILES
WCI - WIND CHILL INDEX
HX  - HEAT INDEX



USA.gov is the U.S. government's official web portal to all federal, state and local government web resources and services.